User: anonymous   Login
Location: Glendale
(37.4556°N, 88.6714°W)
Time: 08:46:14
(UTC+00:00)
Language:

Meteor 1-25 Rocket - Orbit

View from above orbital plane
View from above orbital plane
View from above satellite
View from above satellite

Ground track
Ground track

The orbit data is extracted from the following two-line orbital elements,

1  8846U 76043B   20055.59448902 +.00000157 +00000-0 +83521-4 0  9995
2  8846 081.2179 075.9160 0038439 121.2515 239.2429 14.08570297249108
Epoch (UTC): 24 February 2020 14:16:03
Eccentricity: 0.0038439
inclination: 81.2179°
perigee height: 836 km
apogee height: 892 km
right ascension of ascending node: 75.9160°
argument of perigee: 121.2515°
revolutions per day: 14.08570297
mean anomaly at epoch: 239.2429°
orbit number at epoch: 24910

The dashed part of the orbit path shows where the satellite is in the earth's shadow,  

DLR